TimeCDT,TemperatureF,Dew PointF,Humidity,Sea Level PressureIn,VisibilityMPH,Wind Direction,Wind SpeedMPH,Gust SpeedMPH,PrecipitationIn,Events,Conditions,WindDirDegrees,DateUTC
12:15 AM,62.4,41.4,46,29.98,10.0,SSW,5.8,-,N/A,,Clear,200,2013-09-25 05:15:00
12:35 AM,62.2,42.1,48,29.98,10.0,South,3.5,-,N/A,,Clear,190,2013-09-25 05:35:00
12:55 AM,60.8,42.3,50,29.98,10.0,South,5.8,-,N/A,,Clear,170,2013-09-25 05:55:00
1:15 AM,59.0,42.1,53,29.97,10.0,South,3.5,-,N/A,,Clear,170,2013-09-25 06:15:00
1:35 AM,56.7,41.7,57,29.97,10.0,South,5.8,-,N/A,,Clear,170,2013-09-25 06:35:00
1:55 AM,56.5,43.7,62,29.97,10.0,Calm,Calm,-,N/A,,Clear,0,2013-09-25 06:55:00
2:15 AM,56.5,44.6,64,29.97,10.0,Calm,Calm,-,N/A,,Clear,0,2013-09-25 07:15:00
2:35 AM,55.8,45.3,68,29.96,10.0,WSW,3.5,-,N/A,,Clear,240,2013-09-25 07:35:00
2:55 AM,54.5,44.8,70,29.96,10.0,Calm,Calm,-,N/A,,Clear,0,2013-09-25 07:55:00
3:15 AM,52.3,41.9,68,29.96,10.0,Calm,Calm,-,N/A,,Clear,0,2013-09-25 08:15:00
3:35 AM,52.2,43.9,73,29.95,10.0,South,3.5,-,N/A,,Clear,190,2013-09-25 08:35:00
3:55 AM,53.4,44.6,72,29.95,10.0,Calm,Calm,-,N/A,,Clear,0,2013-09-25 08:55:00
4:15 AM,53.6,44.6,72,29.95,10.0,Calm,Calm,-,N/A,,Clear,0,2013-09-25 09:15:00
4:35 AM,53.2,44.8,73,29.95,10.0,Calm,Calm,-,N/A,,Clear,0,2013-09-25 09:35:00
4:55 AM,52.7,45.0,75,29.94,10.0,Calm,Calm,-,N/A,,Clear,0,2013-09-25 09:55:00
5:15 AM,50.9,43.7,76,29.94,10.0,Calm,Calm,-,N/A,,Clear,0,2013-09-25 10:15:00
5:35 AM,50.2,42.3,74,29.94,10.0,Calm,Calm,-,N/A,,Clear,0,2013-09-25 10:35:00
5:55 AM,49.5,42.3,76,29.95,10.0,Calm,Calm,-,N/A,,Clear,0,2013-09-25 10:55:00
6:15 AM,50.2,42.3,74,29.95,10.0,Calm,Calm,-,N/A,,Clear,0,2013-09-25 11:15:00
6:35 AM,50.0,41.9,74,29.95,10.0,Calm,Calm,-,N/A,,Clear,0,2013-09-25 11:35:00
6:55 AM,50.9,42.4,73,29.95,10.0,Calm,Calm,-,N/A,,Clear,0,2013-09-25 11:55:00
7:15 AM,50.5,42.4,74,29.95,10.0,Calm,Calm,-,N/A,,Clear,0,2013-09-25 12:15:00
7:35 AM,49.3,43.9,82,29.95,10.0,Calm,Calm,-,N/A,,Clear,0,2013-09-25 12:35:00
7:55 AM,48.7,43.7,83,29.95,10.0,Calm,Calm,-,N/A,,Clear,0,2013-09-25 12:55:00
8:15 AM,49.6,44.8,83,29.95,10.0,West,3.5,-,N/A,,Clear,260,2013-09-25 13:15:00
8:35 AM,52.5,45.7,78,29.95,10.0,West,3.5,-,N/A,,Clear,270,2013-09-25 13:35:00
8:55 AM,55.9,45.9,69,29.95,10.0,Calm,Calm,-,N/A,,Clear,0,2013-09-25 13:55:00
9:15 AM,58.3,47.3,67,29.96,10.0,Calm,Calm,-,N/A,,Clear,0,2013-09-25 14:15:00
9:35 AM,60.6,47.1,61,29.96,10.0,Calm,Calm,-,N/A,,Clear,0,2013-09-25 14:35:00
9:55 AM,62.8,47.1,57,29.96,10.0,Calm,Calm,-,N/A,,Clear,0,2013-09-25 14:55:00
10:15 AM,65.5,47.1,51,29.96,10.0,Calm,Calm,-,N/A,,Clear,0,2013-09-25 15:15:00
10:35 AM,68.7,45.9,44,29.96,10.0,Calm,Calm,-,N/A,,Clear,0,2013-09-25 15:35:00
10:55 AM,71.4,45.3,39,29.96,10.0,Calm,Calm,-,N/A,,Clear,0,2013-09-25 15:55:00
11:15 AM,74.3,44.4,34,29.95,10.0,Calm,Calm,-,N/A,,Clear,0,2013-09-25 16:15:00
11:35 AM,77.5,44.1,30,29.95,10.0,Calm,Calm,-,N/A,,Clear,0,2013-09-25 16:35:00
11:55 AM,80.1,43.7,28,29.93,10.0,Calm,Calm,-,N/A,,Clear,0,2013-09-25 16:55:00
12:15 PM,81.7,42.8,25,29.93,10.0,Calm,Calm,-,N/A,,Clear,0,2013-09-25 17:15:00
12:35 PM,84.0,41.7,22,29.92,10.0,Calm,Calm,-,N/A,,Clear,0,2013-09-25 17:35:00
12:55 PM,86.5,42.6,21,29.90,10.0,SSW,3.5,-,N/A,,Clear,210,2013-09-25 17:55:00
1:15 PM,88.3,42.6,20,29.89,10.0,SE,5.8,-,N/A,,Clear,140,2013-09-25 18:15:00
1:35 PM,89.6,41.7,19,29.88,10.0,SSE,4.6,-,N/A,,Clear,150,2013-09-25 18:35:00
1:55 PM,90.1,41.0,18,29.87,10.0,South,3.5,-,N/A,,Clear,190,2013-09-25 18:55:00
2:15 PM,91.2,41.2,17,29.86,10.0,SW,3.5,-,N/A,,Clear,230,2013-09-25 19:15:00
2:35 PM,93.4,41.5,17,29.85,10.0,WSW,9.2,-,N/A,,Clear,240,2013-09-25 19:35:00
2:55 PM,93.6,41.0,16,29.84,10.0,South,6.9,-,N/A,,Clear,170,2013-09-25 19:55:00
3:15 PM,92.7,40.6,16,29.82,10.0,SW,4.6,-,N/A,,Clear,220,2013-09-25 20:15:00
3:35 PM,93.7,40.8,16,29.81,10.0,Calm,Calm,-,N/A,,Clear,0,2013-09-25 20:35:00
3:55 PM,93.7,41.0,16,29.80,10.0,SW,4.6,-,N/A,,Clear,230,2013-09-25 20:55:00
4:15 PM,94.3,41.9,16,29.79,10.0,ESE,4.6,-,N/A,,Clear,120,2013-09-25 21:15:00
4:35 PM,94.8,42.3,16,29.79,10.0,Calm,Calm,-,N/A,,Clear,0,2013-09-25 21:35:00
4:55 PM,95.4,43.0,16,29.78,10.0,South,9.2,-,N/A,,Clear,170,2013-09-25 21:55:00
5:15 PM,95.0,42.3,16,29.77,10.0,SE,8.1,-,N/A,,Clear,140,2013-09-25 22:15:00
5:35 PM,95.9,42.4,16,29.77,10.0,SE,4.6,-,N/A,,Clear,140,2013-09-25 22:35:00
5:55 PM,95.2,41.9,16,29.76,10.0,ESE,8.1,-,N/A,,Clear,120,2013-09-25 22:55:00
6:15 PM,94.6,41.5,16,29.76,10.0,SE,9.2,-,N/A,,Clear,130,2013-09-25 23:15:00
6:35 PM,94.1,41.4,16,29.76,10.0,SE,9.2,-,N/A,,Clear,140,2013-09-25 23:35:00
6:55 PM,93.4,40.6,16,29.76,10.0,ESE,8.1,-,N/A,,Clear,120,2013-09-25 23:55:00
7:15 PM,91.8,40.5,17,29.75,10.0,ESE,8.1,-,N/A,,Clear,120,2013-09-26 00:15:00
7:35 PM,88.3,40.6,19,29.75,10.0,East,5.8,-,N/A,,Clear,100,2013-09-26 00:35:00
7:55 PM,85.3,40.1,20,29.75,10.0,East,5.8,-,N/A,,Clear,100,2013-09-26 00:55:00
8:15 PM,82.2,40.3,23,29.76,10.0,East,6.9,-,N/A,,Clear,100,2013-09-26 01:15:00
8:35 PM,80.1,40.3,24,29.76,10.0,East,5.8,-,N/A,,Clear,100,2013-09-26 01:35:00
8:55 PM,79.2,39.7,24,29.76,10.0,East,9.2,-,N/A,,Clear,80,2013-09-26 01:55:00
9:15 PM,77.2,39.6,26,29.77,10.0,East,6.9,-,N/A,,Clear,90,2013-09-26 02:15:00
9:35 PM,75.0,39.6,28,29.77,10.0,East,8.1,-,N/A,,Clear,100,2013-09-26 02:35:00
9:55 PM,75.2,40.3,28,29.78,10.0,ESE,8.1,-,N/A,,Clear,110,2013-09-26 02:55:00
10:15 PM,72.7,40.5,31,29.78,10.0,East,9.2,-,N/A,,Clear,100,2013-09-26 03:15:00
10:35 PM,74.1,42.8,32,29.78,10.0,SE,11.5,-,N/A,,Clear,130,2013-09-26 03:35:00
10:55 PM,76.5,44.8,32,29.78,10.0,SE,12.7,-,N/A,,Clear,130,2013-09-26 03:55:00
11:15 PM,76.5,46.4,34,29.78,10.0,SE,13.8,-,N/A,,Clear,140,2013-09-26 04:15:00
11:35 PM,75.6,47.3,37,29.79,10.0,SE,12.7,18.4,N/A,,Clear,130,2013-09-26 04:35:00
11:55 PM,75.2,50.0,41,29.78,10.0,SE,11.5,-,N/A,,Clear,140,2013-09-26 04:55:00